Location: Balaclava NSW 2575, Australia
(34.4510°S, 150.4953°E)
Time: 06:10:34
(UTC+10:00)

Envisat - Pass Details

Date: 16 May 2021
Orbit: 764 x 766 km, 98.1° (Epoch: 15 June)

Event Time Altitude Azimuth Distance (km) Brightness Sun altitude
Rises 04:27:45 0° 20° (NNE) 3,217 6.5 -28.2°
Reaches altitude 10° 04:30:02 10° 23° (NNE) 2,299 5.8 -27.7°
Maximum altitude 04:35:05 69° 105° (ESE) 826 3.2 -26.7°
Enters shadow 04:37:44 29° 181° (S) 1,407 4.2 -26.1°
